Find Kuiper-00250

NORAD ID: 67155 Int'l Des: 2025-301 Owner: KUIP Country: US Constellation: amazon-leo operational
LEOCIRCULAR

Live-Position

3D-Globus wird geladen...

Über Kuiper-00250

Beschreibung wird geladen...

Nächste Überflüge

Passes for default location (London). Set your location on the main map for personalized predictions.

Höhenverlauf

Loading altitude history...

Zweizeiliger Elementsatz

1 67155U 25301Y 26125.14235189 .00002543 00000-0 36242-3 0 9998
2 67155 51.8979 180.9700 0000436 60.3731 299.7274 14.79939566 22051
Epoch: 5. Mai 2026 • Age: 11 hours

Aktueller Status

Höhe 644.4 km
Geschwindigkeit 7.54 km/s
Subsatellitenpunkt -44.06°S, 49.2°E
Startdatum 16. Dez. 2025
Alter 0.3 years
Typ internet

Technische Details

Klassifizierung Payload
Masse 490.00 kg
Trockenmasse 490.00 kg
Gesamtmasse 490.00 kg
Länge 1.80 m
Durchmesser 0.70 m
Spannweite 5.00 m
Form Box + 2 pan
Hersteller KUIP
Bus-Typ Kuiper
Phasenstatus In Orbit
Besitzer/Staat KUIP/US

Most Searched